Location: Unspecified
(0.0000°N, 0.0000°E)
Time: 11:27:10
(UTC+00:00)

ISS - Visible Passes

Search period start: 24 October 2017 00:00
Search period end: 03 November 2017 00:00
Orbit: 401 x 408 km, 51.6° (Epoch: 25 October)

Date Brightness Start Highest point End Pass type
(mag) Time Alt. Az. Time Alt. Az. Time Alt. Az.
24 Oct -2.5 05:08:30 10° SSW 05:11:37 44° SE 05:14:44 10° NE visible
25 Oct -0.8 04:17:13 10° SSE 04:19:22 16° SE 04:21:31 10° E visible
26 Oct -3.3 05:00:19 10° SW 05:03:22 37° NW 05:06:24 10° NNE visible
27 Oct -2.9 04:11:57 44° ENE 04:11:57 44° ENE 04:14:19 10° NE visible
